FENGYUN 1C DEB

Satellite information

Favourite Embed

Satellite Type and Status

DEBRISIN ORBIT

Key statistics

Satellite FENGYUN 1C DEB at a glance.

Uptime

9495

Days in orbit

Revolutions

≈ 14.4

Per day

Orbit

SSO

Sun Synchronous Orbit

Inclination

98.4

Latest

Satellite identification and parameters

Extended collection of information and parameters for FENGYUN 1C DEB.

Object identification

Identified? True

Debris? True

Object name: FENGYUN 1C DEB

International designator: 1999-025VG

Object number (NORAD): 30199

Object ID (CCSDS): 30199

Country: PEOPLES REPUBLIC OF CHINA (PRC)

Current information (Y/N): Y

RCS size: SMALL

Orbital parameters

Period: 100.198 minutes

Inclination: 98.4005 deg

SMA: 7146.038 km

Apoapsis: 824.258 km

Periapsis: 711.548 km

RAAN: 156.6385 deg

Eccentricy: 0.0078862

Argument of periapsis: 242.5429 deg

Mean anomaly: 297.4615 deg

Mean motion: 14.37158808 rev/day

Mean motion (dot): 0.0000245 rev/day2

B* drag term: 0.00080921 1/REarth

Two-line elements (TLE)

Creation date: May 8, 2025, 3:01 a.m.

Reference frame: TEME

Reference center: EARTH

Epoch: May 7, 2025, 9 p.m. UTC

TLE line 0: 0 FENGYUN 1C DEB

TLE line 1: 1 30199U 99025VG 25127.87507056 .00002450 00000-0 80921-3 0 9996

TLE line 2: 2 30199 98.4005 156.6385 0078862 242.5429 297.4615 14.37158808952659

Live tracking on map

Real-time ground track for satellite FENGYUN 1C DEB.

In-orbit conjunctions

A list of the most updated potential collisions computed for object FENGYUN 1C DEB.

Target Orbit TCA Probability of collision Miss distance Type
SL-16 DEB LEO 2024-12-20 22:37:52 0.0001326147 304.0 (m) DEBRIS
CZ-4B DEB SSO 2024-11-11 23:24:02 0.0004464788 166.0 (m) DEBRIS

Associated space launch

Chinese polar orbiting meteorological satellite

FENGYUN 1C DEB was lifted into orbit during the mission ‘Long March 4B | Feng Yun 1C’, on board a Long March 4B space rocket.

The launch took place on May 10, 1999, 1:33 a.m. from Launch Complex 7.

For more information about the launch, click the button.

Launch to space Long March 4B | Feng Yun 1C
Long March 4B | Feng Yun 1C

Agency: N/A

Status: Launch Successful

Launch date: May 10, 1999, 1:33 a.m. UTC

Rocket: Long March 4B

Launch pad: Launch Complex 7

Location: Taiyuan Satellite Launch Center, People's Republic of China

...

Latest news about this satellite

There are no fresh news available about this satellite. Check back as we update our databases every day.


Newsletter sign-up

Weekly statistics, charts and insights to help you stay on top of the space industry.